Preview of NWS' New Version of Forecast
This preview is not operational and should not be used for support decisions.

Regional Weather Roundup (RWR)

Issued by New Orleans/Baton Rouge (LIX)

                            
000
ASUS44 KLIX 162315
RWRLIX
NEW ORLEANS REGIONAL WEATHER ROUNDUP
NATIONAL WEATHER SERVICE NEW ORLEANS LA
500 PM CST WED JAN 16 2019

NOTE: "FAIR" INDICATES FEW OR NO CLOUDS BELOW 12,000 FEET WITH NO
      SIGNIFICANT WEATHER AND/OR OBSTRUCTIONS TO VISIBILITY.
      SKY/WX - SKY CONDITION AND SIGNIFICANT WEATHER.
      TMP - AIR TEMPERATURE.     DP    - DEWPOINT TEMPERATURE.
      RH  - RELATIVE HUMIDITY.   PRES  - PRESSURE.
      HI  - HEAT INDEX.          WCI   - WIND CHILL INDEX.

*  THESE STATIONS ARE NOT NWS OR FAA STATIONS AND ARE NOT UNDER
   NWS QUALITY CONTROL. 

LAZ038-040-048-061>063-065>067-069-170000-
SOUTHEAST LOUISIANA
  
CITY           SKY/WX    TMP DP  RH WIND       PRES   REMARKS
N.O. INTL ARPT FAIR      55  44  66 NW3       30.27F                  
N.O. LAKEFRONT FAIR      55  43  63 N5        30.28S                  
N.O. DOWNTOWN* FAIR      57  43  59 N3        30.28S                  
RESERVE*       FAIR      58  39  49 E7        30.27S                  
SLIDELL        FAIR      55  40  56 SW7       30.27S                  
BATON ROUGE    FAIR      60  39  45 CALM      30.25F                  
BOOTHVILLE     FAIR      52  43  71 NE3       30.29S                  
BELLE CHASSE   FAIR      57  45  64 SE8       30.27S                  
BOGALUSA*      FAIR      60  45  59 NW3       30.27S                  
GALLIANO*      FAIR      60  38  43 SE5       30.28S                  
NEW ROADS*     CLOUDY    55  41  58 CALM      30.26S                  
GONZALES*      FAIR      60  41  48 CALM      30.25F                  
HAMMOND*       FAIR      55  41  58 CALM      30.26F                  
HOUMA*         CLEAR     55  46  71 S7        30.27S                  
PORT FOURCHON* CLEAR     54  45  71 E7        30.28S                  

$$

MSZ070-080>082-170000-
SOUTHERN MISSISSIPPI
  
CITY           SKY/WX    TMP DP  RH WIND       PRES   REMARKS
MCCOMB         CLOUDY    56  40  55 CALM      30.25F                  
GULFPORT       FAIR      53  42  66 VRB3      30.27S                  
BILOXI         FAIR      52  42  70 SW7       30.27S                  
PASCAGOULA     FAIR      53  42  66 CALM      30.27S                  
STENNIS ARPT*  CLEAR     57  43  58 S6        30.29R                  

$$

COASTAL OBSERVATIONS
LAKE AND NEARSHORE STATIONS
  
STATION/POSITION TIME  SKY/WX   TEMP    WIND        PRES    WAVE
                                AIR SEA DIR/SP/G            HT/PER
                 (UTC)          (F)     (DEG/KT/KT) (MB)    (FT/S)
WAVELAND YACHT   2248            52 53  210/  4/  7 1025.0
GRAND ISLE       2242            54 56  110/  3/  5 1025.4
SOUTHWEST PASS   2242               48              1025.8
NEW CANAL        2242            53 53  360/  2/  2 1025.0
SHELL BEACH      2248            53 56  150/  7/  8 1025.4

OFFSHORE STATIONS
  
STATION/POSITION TIME  SKY/WX   TEMP    WIND        PRES    WAVE
                                AIR SEA DIR/SP/G            HT/PER
                 (UTC)          (F)     (DEG/KT/KT) (MB)    (FT/S)
64 S DAUPHIN ISL 2250                   340/  2/  6 1025.5    1/ 3

$$